Volver al catálogo

STARLINK-5626

ActivoComunicacionesVLEO
NORAD 55435·PAYLOAD·🇺🇸 United States

Lanzado Jan 31, 2023 desde Vandenberg Space Force Base

Loading…

Próximos Pases (próximas 24 horas)

TLE

ActualizadoSource: CelesTrak SupGP

Época: Sep 14, 2026, 21:03 UTC

1 55435C 23014AW  26257.87756944 -.00050193  00000+0 -42087-2 0  2573
2 55435  70.0016 347.4200 0003535 272.4085 241.6262 14.98333252    16

Sigue STARLINK-5626 en tiempo real con AllMySat

Download on the App Store